When you browse on this site, cookies collect data to enhance your experience and personalize the content and advertising you see.
Visit our Privacy Policy to learn more. By continuing to use the site, you agree to this use of cookies and data.
  • In Romania
  • List of Countries
  • For 7 days
  • Water Temperature
  • Weather Map
  • Weather Widgets
  • user-avatar
    Login

    Hourly Weather Kankan

    Today, 18 November, Monday

    Time Temperature Precipitation Wind Pressure Humidity
    00:00 +23°C° 0 mm 1 mps 683 mmHg 34%
    01:00 +23°C° 0 mm 1 mps 683 mmHg 35%
    02:00 +23°C° 0 mm 1 mps 683 mmHg 35%
    03:00 +22°C° 0 mm 1 mps 682 mmHg 35%
    04:00 +22°C° 0 mm 1 mps 682 mmHg 35%
    05:00 +22°C° 0 mm 1 mps 683 mmHg 37%
    06:00 +20°C° 0 mm 0 mps 683 mmHg 38%
    07:00 +21°C° 0 mm 0 mps 684 mmHg 38%
    08:00 +24°C° 0 mm 0 mps 684 mmHg 33%
    09:00 +29°C° 0 mm 1 mps 685 mmHg 27%
    10:00 +32°C° 0 mm 1 mps 686 mmHg 22%
    11:00 +33°C° 0 mm 1 mps 685 mmHg 21%
    12:00 +35°C° 0 mm 2 mps 685 mmHg 19%
    13:00 +35°C° 0 mm 2 mps 685 mmHg 18%
    14:00 +35°C° 0 mm 2 mps 684 mmHg 18%
    15:00 +35°C° 0 mm 2 mps 683 mmHg 19%
    16:00 +35°C° 0 mm 2 mps 683 mmHg 19%
    17:00 +31°C° 0 mm 1 mps 683 mmHg 23%
    18:00 +29°C° 0 mm 1 mps 683 mmHg 26%
    19:00 +25°C° 0 mm 0 mps 683 mmHg 30%
    20:00 +24°C° 0 mm 0 mps 683 mmHg 31%
    21:00 +23°C° 0 mm 0 mps 683 mmHg 32%
    22:00 +25°C° 0 mm 1 mps 684 mmHg 33%
    23:00 +24°C° 0 mm 1 mps 684 mmHg 35%

    Tomorrow, 19 November, Tuesday

    Time Temperature Precipitation Wind Pressure Humidity
    00:00 +24°C° 0 mm 1 mps 684 mmHg 36%
    01:00 +24°C° 0 mm 1 mps 683 mmHg 37%
    02:00 +23°C° 0 mm 1 mps 683 mmHg 38%
    03:00 +23°C° 0 mm 1 mps 683 mmHg 40%
    04:00 +23°C° 0 mm 1 mps 682 mmHg 41%
    05:00 +23°C° 0 mm 1 mps 683 mmHg 42%
    06:00 +23°C° 0 mm 1 mps 683 mmHg 43%
    07:00 +23°C° 0 mm 1 mps 684 mmHg 44%
    08:00 +26°C° 0 mm 1 mps 685 mmHg 38%
    09:00 +29°C° 0 mm 1 mps 685 mmHg 31%
    10:00 +33°C° 0 mm 1 mps 686 mmHg 25%
    11:00 +34°C° 0 mm 1 mps 686 mmHg 22%
    12:00 +36°C° 0 mm 2 mps 685 mmHg 20%
    13:00 +36°C° 0 mm 3 mps 685 mmHg 18%
    14:00 +36°C° 0 mm 3 mps 684 mmHg 18%
    15:00 +36°C° 0 mm 3 mps 684 mmHg 19%
    16:00 +36°C° 0 mm 3 mps 683 mmHg 19%
    17:00 +32°C° 0 mm 2 mps 683 mmHg 23%
    18:00 +30°C° 0 mm 1 mps 683 mmHg 27%
    19:00 +27°C° 0 mm 1 mps 683 mmHg 31%
    20:00 +27°C° 0 mm 1 mps 683 mmHg 33%
    21:00 +26°C° 0 mm 1 mps 683 mmHg 36%
    22:00 +25°C° 0 mm 1 mps 684 mmHg 38%
    23:00 +25°C° 0 mm 1 mps 684 mmHg 41%

    Day after tomorrow, 20 November, Wednesday

    Time Temperature Precipitation Wind Pressure Humidity
    00:00 +25°C° 0 mm 1 mps 683 mmHg 43%
    01:00 +24°C° 0 mm 1 mps 683 mmHg 45%
    02:00 +24°C° 0 mm 1 mps 683 mmHg 47%
    03:00 +24°C° 0 mm 1 mps 683 mmHg 48%
    04:00 +23°C° 0 mm 1 mps 682 mmHg 49%
    05:00 +23°C° 0 mm 1 mps 683 mmHg 50%
    06:00 +23°C° 0 mm 1 mps 683 mmHg 51%
    07:00 +23°C° 0 mm 1 mps 684 mmHg 52%
    08:00 +27°C° 0 mm 1 mps 685 mmHg 44%
    09:00 +30°C° 0 mm 1 mps 685 mmHg 36%
    10:00 +33°C° 0 mm 1 mps 686 mmHg 29%
    11:00 +34°C° 0 mm 1 mps 686 mmHg 25%
    12:00 +36°C° 0 mm 2 mps 685 mmHg 22%
    13:00 +36°C° 0 mm 3 mps 685 mmHg 19%
    14:00 +36°C° 0 mm 3 mps 684 mmHg 19%
    15:00 +36°C° 0 mm 2 mps 684 mmHg 19%
    16:00 +36°C° 0 mm 2 mps 683 mmHg 19%
    17:00 +32°C° 0 mm 2 mps 683 mmHg 22%
    18:00 +30°C° 0 mm 1 mps 683 mmHg 26%
    19:00 +26°C° 0 mm 0 mps 683 mmHg 29%
    20:00 +25°C° 0 mm 0 mps 683 mmHg 30%
    21:00 +26°C° 0 mm 1 mps 683 mmHg 31%
    22:00 +26°C° 0 mm 1 mps 684 mmHg 33%
    23:00 +25°C° 0 mm 1 mps 684 mmHg 34%

    21 November, Thursday

    Time Temperature Precipitation Wind Pressure Humidity
    00:00 +25°C° 0 mm 1 mps 684 mmHg 35%
    01:00 +25°C° 0 mm 1 mps 683 mmHg 36%
    02:00 +24°C° 0 mm 1 mps 683 mmHg 37%
    03:00 +24°C° 0 mm 1 mps 683 mmHg 38%
    04:00 +23°C° 0 mm 1 mps 683 mmHg 39%
    05:00 +23°C° 0 mm 1 mps 683 mmHg 40%
    06:00 +23°C° 0 mm 1 mps 683 mmHg 41%
    07:00 +23°C° 0 mm 1 mps 684 mmHg 42%
    08:00 +26°C° 0 mm 1 mps 684 mmHg 36%
    09:00 +30°C° 0 mm 1 mps 685 mmHg 29%
    10:00 +34°C° 0 mm 2 mps 686 mmHg 23%
    11:00 +35°C° 0 mm 2 mps 685 mmHg 21%
    12:00 +36°C° 0 mm 3 mps 685 mmHg 19%
    13:00 +36°C° 0 mm 4 mps 684 mmHg 18%
    14:00 +36°C° 0 mm 4 mps 684 mmHg 17%
    15:00 +36°C° 0 mm 4 mps 683 mmHg 17%
    16:00 +36°C° 0 mm 3 mps 683 mmHg 16%
    17:00 +32°C° 0 mm 2 mps 682 mmHg 19%
    18:00 +30°C° 0 mm 1 mps 682 mmHg 23%
    19:00 +27°C° 0 mm 1 mps 682 mmHg 26%
    20:00 +26°C° 0 mm 1 mps 682 mmHg 26%
    21:00 +26°C° 0 mm 1 mps 683 mmHg 26%
    22:00 +25°C° 0 mm 1 mps 683 mmHg 27%
    23:00 +25°C° 0 mm 1 mps 683 mmHg 27%

    22 November, Friday

    Time Temperature Precipitation Wind Pressure Humidity
    00:00 +25°C° 0 mm 1 mps 683 mmHg 28%
    01:00 +24°C° 0 mm 1 mps 683 mmHg 29%
    02:00 +24°C° 0 mm 1 mps 683 mmHg 30%
    03:00 +23°C° 0 mm 1 mps 683 mmHg 31%
    04:00 +23°C° 0 mm 1 mps 683 mmHg 33%
    05:00 +23°C° 0 mm 1 mps 683 mmHg 34%
    06:00 +23°C° 0 mm 1 mps 683 mmHg 36%
    07:00 +22°C° 0 mm 1 mps 684 mmHg 38%
    08:00 +26°C° 0 mm 1 mps 684 mmHg 33%
    09:00 +29°C° 0 mm 1 mps 685 mmHg 29%
    10:00 +31°C° 0 mm 0 mps 686 mmHg 24%
    11:00 +33°C° 0 mm 1 mps 686 mmHg 21%
    12:00 +35°C° 0 mm 2 mps 685 mmHg 18%
    13:00 +36°C° 0 mm 3 mps 684 mmHg 16%
    14:00 +36°C° 0 mm 3 mps 684 mmHg 16%
    15:00 +35°C° 0 mm 3 mps 684 mmHg 17%
    16:00 +35°C° 0 mm 2 mps 683 mmHg 17%
    17:00 +32°C° 0 mm 2 mps 683 mmHg 21%
    18:00 +29°C° 0 mm 1 mps 683 mmHg 24%
    19:00 +27°C° 0 mm 1 mps 683 mmHg 28%
    20:00 +26°C° 0 mm 1 mps 683 mmHg 30%
    21:00 +25°C° 0 mm 1 mps 684 mmHg 32%
    22:00 +25°C° 0 mm 1 mps 684 mmHg 34%
    23:00 +24°C° 0 mm 1 mps 684 mmHg 36%

    23 November, Saturday

    Time Temperature Precipitation Wind Pressure Humidity
    00:00 +24°C° 0 mm 1 mps 684 mmHg 39%
    01:00 +24°C° 0 mm 1 mps 684 mmHg 41%
    02:00 +23°C° 0 mm 1 mps 684 mmHg 45%
    03:00 +23°C° 0 mm 1 mps 684 mmHg 49%
    04:00 +22°C° 0 mm 1 mps 683 mmHg 54%
    05:00 +22°C° 0 mm 1 mps 684 mmHg 57%
    06:00 +22°C° 0 mm 1 mps 684 mmHg 61%
    07:00 +22°C° 0 mm 1 mps 684 mmHg 64%
    08:00 +25°C° 0 mm 1 mps 685 mmHg 54%
    09:00 +28°C° 0 mm 2 mps 686 mmHg 43%
    10:00 +31°C° 0 mm 2 mps 687 mmHg 32%
    11:00 +32°C° 0 mm 2 mps 686 mmHg 27%
    12:00 +34°C° 0 mm 3 mps 686 mmHg 22%
    13:00 +36°C° 0 mm 3 mps 685 mmHg 17%
    14:00 +35°C° 0 mm 3 mps 685 mmHg 17%
    15:00 +35°C° 0 mm 3 mps 684 mmHg 18%
    16:00 +35°C° 0 mm 3 mps 684 mmHg 18%
    17:00 +31°C° 0 mm 2 mps 683 mmHg 21%
    18:00 +29°C° 0 mm 2 mps 683 mmHg 24%
    19:00 +26°C° 0 mm 1 mps 683 mmHg 28%
    20:00 +25°C° 0 mm 1 mps 683 mmHg 28%
    21:00 +23°C° 0 mm 0 mps 684 mmHg 29%
    22:00 +22°C° 0 mm 0 mps 684 mmHg 29%
    23:00 +21°C° 0 mm 0 mps 684 mmHg 30%
    Show more